,,PA_Meas_PMT16A,,PR_Meas_QMR101_102,,RH_Meas_QMH101,,SR_Meas_QMS101,,TA_Meas_QMH101,,GenWind,,GenWind,
time,status,PA,status,PR,status,RH,status,SR,status,TA,status,DirAvg,status,SpdAvg,
2013-05-15, 00:00:04,VALID,917.132,VALID,0,VALID,90.4823,VALID,0,VALID,20.9316,VALID,20,VALID,0,
2013-05-15, 00:01:04,VALID,917.11,VALID,0,VALID,90.7873,VALID,0,VALID,20.93,VALID,23,VALID,0,
2013-05-15, 00:02:04,VALID,917.172,VALID,0,VALID,90.8101,VALID,0,VALID,20.9105,VALID,354,VALID,0,
2013-05-15, 00:03:04,VALID,917.171,VALID,0,VALID,91.1837,VALID,0,VALID,20.9495,VALID,354,VALID,0,
2013-05-15, 00:04:04,VALID,917.193,VALID,0,VALID,91.1684,VALID,0,VALID,21.008,VALID,354,VALID,0,
2013-05-15, 00:05:04,VALID,917.188,VALID,0,VALID,91.2294,VALID,0.107441,VALID,21.0665,VALID,354,VALID,0,
2013-05-15, 00:06:04,VALID,917.239,VALID,0,VALID,91.1913,VALID,0,VALID,21.0275,VALID,354,VALID,0,
2013-05-15, 00:07:04,VALID,917.252,VALID,0,VALID,90.5204,VALID,0,VALID,21.008,VALID,354,VALID,0,
2013-05-15, 00:08:04,VALID,917.239,VALID,0,VALID,91.237,VALID,0,VALID,21.0275,VALID,334,VALID,0,
2013-05-15, 00:09:04,VALID,917.215,VALID,0,VALID,91.3895,VALID,0.107441,VALID,21.047,VALID,334,VALID,0,
2013-05-15, 00:10:04,VALID,917.172,VALID,0,VALID,91.4581,VALID,0,VALID,21.0665,VALID,334,VALID,0,
2013-05-15, 00:11:04,VALID,917.198,VALID,0,VALID,90.9931,VALID,0,VALID,21.0876,VALID,335,VALID,0,
2013-05-15, 00:12:04,VALID,917.206,VALID,0,VALID,91.1227,VALID,0,VALID,21.1071,VALID,340,VALID,0,
2013-05-15, 00:13:04,VALID,917.189,VALID,0,VALID,90.7949,VALID,0.107441,VALID,21.086,VALID,340,VALID,0,
2013-05-15, 00:14:04,VALID,917.161,VALID,0,VALID,90.5509,VALID,0,VALID,21.0876,VALID,340,VALID,0,
2013-05-15, 00:15:04,VALID,917.127,VALID,0,VALID,90.8406,VALID,0,VALID,21.0665,VALID,359,VALID,0,
2013-05-15, 00:16:04,VALID,917.112,VALID,0,VALID,90.8101,VALID,0,VALID,21.0275,VALID,20,VALID,0,
2013-05-15, 00:17:04,VALID,917.109,VALID,0,VALID,90.9092,VALID,0,VALID,21.008,VALID,352,VALID,0,
2013-05-15, 00:18:04,VALID,917.082,VALID,0,VALID,90.6195,VALID,0.107441,VALID,20.969,VALID,17,VALID,0,
2013-05-15, 00:19:04,VALID,917.054,VALID,0,VALID,91.5115,VALID,0,VALID,21.0486,VALID,23,VALID,0,
2013-05-15, 00:20:04,VALID,917.027,VALID,0,VALID,91.2523,VALID,0,VALID,20.969,VALID,14,VALID,0,
2013-05-15, 00:21:04,VALID,917.082,VALID,0,VALID,90.894,VALID,0,VALID,20.9901,VALID,276,VALID,0,
2013-05-15, 00:22:04,VALID,917.098,VALID,0,VALID,91.0007,VALID,0,VALID,21.0486,VALID,239,VALID,0,
2013-05-15, 00:23:04,VALID,917.135,VALID,0,VALID,91.1532,VALID,0,VALID,21.008,VALID,239,VALID,0,
2013-05-15, 00:24:04,VALID,917.1,VALID,0,VALID,91.359,VALID,0,VALID,21.0681,VALID,350,VALID,0,
2013-05-15, 00:25:04,VALID,917.1,VALID,0,VALID,90.8864,VALID,0,VALID,21.1852,VALID,340,VALID,0,
2013-05-15, 00:26:04,VALID,917.065,VALID,0,VALID,90.6653,VALID,0,VALID,21.2616,VALID,313,VALID,0,
2013-05-15, 00:27:04,VALID,917.052,VALID,0,VALID,90.3299,VALID,0,VALID,21.3803,VALID,349,VALID,0,
2013-05-15, 00:28:04,VALID,917.027,VALID,0,VALID,89.9334,VALID,0,VALID,21.3981,VALID,343,VALID,0,
2013-05-15, 00:29:04,VALID,916.968,VALID,0,VALID,89.2854,VALID,0,VALID,21.4177,VALID,343,VALID,0,
2013-05-15, 00:30:04,VALID,916.978,VALID,0,VALID,89.7886,VALID,0,VALID,21.4372,VALID,327,VALID,0,
2013-05-15, 00:31:04,VALID,916.919,VALID,0,VALID,89.6742,VALID,0,VALID,21.4957,VALID,282,VALID,0,
2013-05-15, 00:32:04,VALID,916.961,VALID,0,VALID,88.9271,VALID,0,VALID,21.5559,VALID,285,VALID,0,
2013-05-15, 00:33:04,VALID,916.948,VALID,0,VALID,88.8585,VALID,0,VALID,21.4567,VALID,4,VALID,0,
2013-05-15, 00:34:04,VALID,916.966,VALID,0,VALID,89.2626,VALID,0,VALID,21.4177,VALID,17,VALID,0,
2013-05-15, 00:35:04,VALID,916.948,VALID,0,VALID,89.6819,VALID,0,VALID,21.4177,VALID,17,VALID,0,
2013-05-15, 00:36:04,VALID,916.937,VALID,0,VALID,90.1393,VALID,0.107441,VALID,21.3803,VALID,17,VALID,0,
2013-05-15, 00:37:04,VALID,916.934,VALID,0,VALID,90.4061,VALID,0,VALID,21.3803,VALID,17,VALID,0,
2013-05-15, 00:38:04,VALID,916.946,VALID,0,VALID,90.5967,VALID,0,VALID,21.3201,VALID,17,VALID,0,
2013-05-15, 00:39:04,VALID,916.949,VALID,0,VALID,90.5891,VALID,0,VALID,21.3591,VALID,17,VALID,0,
2013-05-15, 00:40:04,VALID,916.933,VALID,0,VALID,90.4366,VALID,0.107441,VALID,21.3981,VALID,17,VALID,0,
2013-05-15, 00:41:04,VALID,916.904,VALID,0,VALID,90.3222,VALID,0.107441,VALID,21.3591,VALID,17,VALID,0,
2013-05-15, 00:42:04,VALID,916.906,VALID,0,VALID,90.5433,VALID,0.107441,VALID,21.3591,VALID,16,VALID,0,
2013-05-15, 00:43:04,VALID,916.879,VALID,0,VALID,90.6805,VALID,0,VALID,21.4193,VALID,17,VALID,0,
2013-05-15, 00:44:04,VALID,916.861,VALID,0,VALID,90.6958,VALID,0,VALID,21.3981,VALID,17,VALID,0,
2013-05-15, 00:45:04,VALID,916.828,VALID,0,VALID,90.6653,VALID,0,VALID,21.4193,VALID,17,VALID,0,
2013-05-15, 00:46:04,VALID,916.851,VALID,0,VALID,90.429,VALID,0,VALID,21.4372,VALID,5,VALID,0,
2013-05-15, 00:47:04,VALID,916.847,VALID,0,VALID,90.2079,VALID,0,VALID,21.4957,VALID,332,VALID,0,
2013-05-15, 00:48:04,VALID,916.816,VALID,0,VALID,90.0478,VALID,0,VALID,21.5347,VALID,336,VALID,0,
2013-05-15, 00:49:04,VALID,916.798,VALID,0,VALID,89.8267,VALID,0,VALID,21.5932,VALID,341,VALID,0,
2013-05-15, 00:50:04,VALID,916.731,VALID,0,VALID,89.5294,VALID,0.107441,VALID,21.6128,VALID,7,VALID,0,
2013-05-15, 00:51:04,VALID,916.726,VALID,0,VALID,89.537,VALID,0.107441,VALID,21.6518,VALID,4,VALID,0,
2013-05-15, 00:52:04,VALID,916.716,VALID,0,VALID,89.4837,VALID,0,VALID,21.6518,VALID,26,VALID,0,
2013-05-15, 00:53:04,VALID,916.735,VALID,0,VALID,89.2397,VALID,0,VALID,21.6908,VALID,18,VALID,0,
2013-05-15, 00:54:04,VALID,916.737,VALID,0,VALID,89.1711,VALID,0,VALID,21.7298,VALID,18,VALID,0,
2013-05-15, 00:55:04,VALID,916.724,VALID,0,VALID,88.8738,VALID,0,VALID,21.8079,VALID,18,VALID,0,
2013-05-15, 00:56:04,VALID,916.742,VALID,0,VALID,88.7137,VALID,0,VALID,21.7883,VALID,20,VALID,0,
2013-05-15, 00:57:04,VALID,916.723,VALID,0,VALID,88.668,VALID,0,VALID,21.8079,VALID,358,VALID,0,
2013-05-15, 00:58:04,VALID,916.741,VALID,0,VALID,88.6603,VALID,0.107441,VALID,21.7883,VALID,4,VALID,0,
2013-05-15, 00:59:04,VALID,916.748,VALID,0,VALID,88.9729,VALID,0.107441,VALID,21.7688,VALID,8,VALID,0,
2013-05-15, 01:00:04,VALID,916.766,VALID,0,VALID,89.0263,VALID,0.107441,VALID,21.7298,VALID,8,VALID,0,
2013-05-15, 01:01:04,VALID,916.749,VALID,0,VALID,89.072,VALID,0,VALID,21.7103,VALID,8,VALID,0,
2013-05-15, 01:02:04,VALID,916.748,VALID,0,VALID,89.0415,VALID,0,VALID,21.7705,VALID,353,VALID,0,
2013-05-15, 01:03:04,VALID,916.723,VALID,0,VALID,89.0567,VALID,0.107441,VALID,21.7493,VALID,344,VALID,0,
2013-05-15, 01:04:04,VALID,916.738,VALID,0,VALID,88.9881,VALID,0,VALID,21.7103,VALID,344,VALID,0,
2013-05-15, 01:05:04,VALID,916.695,VALID,0,VALID,88.9729,VALID,0,VALID,21.7493,VALID,344,VALID,0,
2013-05-15, 01:06:04,VALID,916.613,VALID,0,VALID,89.0796,VALID,0,VALID,21.7493,VALID,344,VALID,0,
2013-05-15, 01:07:04,VALID,916.631,VALID,0,VALID,88.8204,VALID,0,VALID,21.7493,VALID,344,VALID,0,
2013-05-15, 01:08:04,VALID,916.614,VALID,0,VALID,88.8662,VALID,0,VALID,21.7493,VALID,344,VALID,0,
2013-05-15, 01:09:04,VALID,916.58,VALID,0,VALID,88.7213,VALID,0,VALID,21.7883,VALID,344,VALID,0,
2013-05-15, 01:10:04,VALID,916.559,VALID,0,VALID,88.6527,VALID,0,VALID,21.7883,VALID,344,VALID,0,
2013-05-15, 01:11:04,VALID,916.538,VALID,0,VALID,88.5993,VALID,0.107441,VALID,21.7883,VALID,344,VALID,0,
2013-05-15, 01:12:04,VALID,916.521,VALID,0,VALID,88.5231,VALID,0.107441,VALID,21.8274,VALID,344,VALID,0,
2013-05-15, 01:13:04,VALID,916.511,VALID,0,VALID,88.4774,VALID,0,VALID,21.8274,VALID,344,VALID,0,
2013-05-15, 01:14:04,VALID,916.494,VALID,0,VALID,88.1648,VALID,0,VALID,21.8274,VALID,344,VALID,0,
2013-05-15, 01:15:04,VALID,916.508,VALID,0,VALID,88.2944,VALID,0,VALID,21.8274,VALID,344,VALID,0,
2013-05-15, 01:16:04,VALID,916.485,VALID,0,VALID,88.1724,VALID,0,VALID,21.7688,VALID,344,VALID,0,
2013-05-15, 01:17:04,VALID,916.472,VALID,0,VALID,88.2639,VALID,0.107441,VALID,21.7705,VALID,344,VALID,0,
2013-05-15, 01:18:04,VALID,916.446,VALID,0,VALID,88.2563,VALID,0,VALID,21.6713,VALID,344,VALID,0,
2013-05-15, 01:19:04,VALID,916.465,VALID,0,VALID,88.6375,VALID,0.107441,VALID,21.6339,VALID,344,VALID,0,
2013-05-15, 01:20:04,VALID,916.464,VALID,0,VALID,88.9271,VALID,0.107441,VALID,21.5542,VALID,344,VALID,0,
2013-05-15, 01:21:04,VALID,916.435,VALID,0,VALID,88.9881,VALID,0,VALID,21.5542,VALID,344,VALID,0,
2013-05-15, 01:22:04,VALID,916.445,VALID,0,VALID,89.0491,VALID,0.107441,VALID,21.5542,VALID,342,VALID,0,
2013-05-15, 01:23:04,VALID,916.421,VALID,0,VALID,88.9576,VALID,0,VALID,21.5347,VALID,341,VALID,0,
2013-05-15, 01:24:04,VALID,916.407,VALID,0,VALID,88.2182,VALID,0,VALID,21.5152,VALID,13,VALID,0,
2013-05-15, 01:25:04,VALID,916.439,VALID,0,VALID,88.4088,VALID,0.107441,VALID,21.4762,VALID,20,VALID,0,
2013-05-15, 01:26:04,VALID,916.388,VALID,0,VALID,89.1787,VALID,0,VALID,21.3981,VALID,20,VALID,0,
2013-05-15, 01:27:04,VALID,916.352,VALID,0,VALID,89.3007,VALID,0.107441,VALID,21.3591,VALID,20,VALID,0,
2013-05-15, 01:28:04,VALID,916.348,VALID,0,VALID,89.2397,VALID,0,VALID,21.3201,VALID,20,VALID,0,
2013-05-15, 01:29:04,VALID,916.387,VALID,0,VALID,89.2473,VALID,0.107441,VALID,21.3006,VALID,20,VALID,0,
2013-05-15, 01:30:04,VALID,916.341,VALID,0,VALID,89.133,VALID,0.107441,VALID,21.3006,VALID,38,VALID,0,
2013-05-15, 01:31:04,VALID,916.335,VALID,0,VALID,89.2931,VALID,0,VALID,21.164,VALID,21,VALID,0,
2013-05-15, 01:32:04,VALID,916.348,VALID,0,VALID,89.7047,VALID,0,VALID,21.1055,VALID,35,VALID,0,
2013-05-15, 01:33:04,VALID,916.355,VALID,0,VALID,89.6361,VALID,0,VALID,21.0275,VALID,35,VALID,0,
2013-05-15, 01:34:04,VALID,916.325,VALID,0,VALID,89.9334,VALID,0,VALID,20.9885,VALID,35,VALID,0,
2013-05-15, 01:35:04,VALID,916.362,VALID,0,VALID,89.9868,VALID,0,VALID,20.93,VALID,35,VALID,0,
2013-05-15, 01:36:04,VALID,916.362,VALID,0,VALID,89.8343,VALID,0,VALID,20.969,VALID,35,VALID,0,
2013-05-15, 01:37:04,VALID,916.347,VALID,0,VALID,90.3222,VALID,0,VALID,20.9511,VALID,10,VALID,0,
2013-05-15, 01:38:04,VALID,916.32,VALID,0,VALID,90.2765,VALID,0,VALID,20.969,VALID,10,VALID,0,
2013-05-15, 01:39:04,VALID,916.298,VALID,0,VALID,89.7886,VALID,0,VALID,21.0486,VALID,21,VALID,0,
2013-05-15, 01:40:04,VALID,916.338,VALID,0,VALID,89.415,VALID,0,VALID,21.1461,VALID,18,VALID,0,
2013-05-15, 01:41:04,VALID,916.331,VALID,0,VALID,89.3541,VALID,0,VALID,21.1461,VALID,18,VALID,0,
2013-05-15, 01:42:04,VALID,916.281,VALID,0,VALID,89.4303,VALID,0,VALID,21.1657,VALID,18,VALID,0,
2013-05-15, 01:43:04,VALID,916.248,VALID,0,VALID,89.5599,VALID,0,VALID,21.1445,VALID,18,VALID,0,
2013-05-15, 01:44:04,VALID,916.219,VALID,0,VALID,89.5294,VALID,0,VALID,21.1266,VALID,18,VALID,0,
2013-05-15, 01:45:04,VALID,916.222,VALID,0,VALID,89.3998,VALID,0,VALID,21.0876,VALID,6,VALID,0,
2013-05-15, 01:46:05,VALID,916.187,VALID,0,VALID,89.2016,VALID,0,VALID,21.0876,VALID,359,VALID,0,
2013-05-15, 01:47:05,VALID,916.172,VALID,0,VALID,89.6666,VALID,0,VALID,21.047,VALID,359,VALID,0,
2013-05-15, 01:48:05,VALID,916.164,VALID,0,VALID,89.6209,VALID,0,VALID,21.0876,VALID,360,VALID,0,
2013-05-15, 01:49:05,VALID,916.146,VALID,0,VALID,89.6209,VALID,0,VALID,21.1071,VALID,360,VALID,0,
2013-05-15, 01:50:05,VALID,916.161,VALID,0,VALID,89.6666,VALID,0,VALID,21.0876,VALID,360,VALID,0,
2013-05-15, 01:51:05,VALID,916.184,VALID,0,VALID,89.7581,VALID,0,VALID,21.0486,VALID,360,VALID,0,
2013-05-15, 01:52:05,VALID,916.159,VALID,0,VALID,89.7124,VALID,0,VALID,21.0096,VALID,360,VALID,0,
2013-05-15, 01:53:05,VALID,916.171,VALID,0,VALID,89.9639,VALID,0,VALID,21.0291,VALID,356,VALID,0,
2013-05-15, 01:54:05,VALID,916.17,VALID,0,VALID,89.8267,VALID,0,VALID,20.9885,VALID,8,VALID,0,
2013-05-15, 01:55:05,VALID,916.168,VALID,0,VALID,90.0325,VALID,0,VALID,20.969,VALID,2,VALID,0,
2013-05-15, 01:56:05,VALID,916.139,VALID,0,VALID,90.2231,VALID,0,VALID,20.9706,VALID,356,VALID,0,
2013-05-15, 01:57:05,VALID,916.167,VALID,0,VALID,90.124,VALID,0,VALID,21.0486,VALID,2,VALID,0,
2013-05-15, 01:58:05,VALID,916.133,VALID,0,VALID,89.6971,VALID,0,VALID,21.1266,VALID,6,VALID,0,
2013-05-15, 01:59:05,VALID,916.132,VALID,0,VALID,89.255,VALID,0,VALID,21.2047,VALID,6,VALID,0,
2013-05-15, 02:00:05,VALID,916.119,VALID,0,VALID,88.8509,VALID,0,VALID,21.2632,VALID,7,VALID,0,
2013-05-15, 02:01:05,VALID,916.1,VALID,0,VALID,88.9043,VALID,0,VALID,21.2242,VALID,24,VALID,0,
2013-05-15, 02:02:05,VALID,916.075,VALID,0,VALID,89.1254,VALID,0,VALID,21.2047,VALID,328,VALID,0,
2013-05-15, 02:03:05,VALID,916.065,VALID,0,VALID,88.889,VALID,0,VALID,21.2421,VALID,318,VALID,0,
2013-05-15, 02:04:05,VALID,916.048,VALID,0,VALID,88.5307,VALID,0,VALID,21.3006,VALID,10,VALID,0,
2013-05-15, 02:05:05,VALID,916.051,VALID,0,VALID,88.3783,VALID,0,VALID,21.3412,VALID,11,VALID,0,
2013-05-15, 02:06:05,VALID,916.041,VALID,0,VALID,88.2563,VALID,0,VALID,21.3217,VALID,8,VALID,0,
2013-05-15, 02:07:05,VALID,916.046,VALID,0,VALID,88.4469,VALID,0,VALID,21.2827,VALID,347,VALID,0,
2013-05-15, 02:08:05,VALID,916.066,VALID,0,VALID,88.3173,VALID,0,VALID,21.2827,VALID,330,VALID,0,
2013-05-15, 02:09:05,VALID,916.056,VALID,0,VALID,88.6527,VALID,0,VALID,21.2242,VALID,5,VALID,0,
2013-05-15, 02:10:05,VALID,916.075,VALID,0,VALID,89.072,VALID,0,VALID,21.1852,VALID,352,VALID,0,
2013-05-15, 02:11:05,VALID,916.06,VALID,0,VALID,89.3007,VALID,0,VALID,21.1852,VALID,359,VALID,0,
2013-05-15, 02:12:05,VALID,916.053,VALID,0,VALID,89.1406,VALID,0,VALID,21.2047,VALID,27,VALID,0,
2013-05-15, 02:13:05,VALID,916.06,VALID,0,VALID,89.0186,VALID,0,VALID,21.2047,VALID,27,VALID,0,
2013-05-15, 02:14:05,VALID,916.024,VALID,0,VALID,89.3159,VALID,0,VALID,21.1445,VALID,2,VALID,0,
2013-05-15, 02:15:05,VALID,916.011,VALID,0,VALID,89.7124,VALID,0,VALID,21.1461,VALID,8,VALID,0,
2013-05-15, 02:16:05,VALID,915.969,VALID,0,VALID,89.8191,VALID,0,VALID,21.1461,VALID,6,VALID,0,
2013-05-15, 02:17:05,VALID,915.933,VALID,0,VALID,89.8496,VALID,0,VALID,21.1461,VALID,358,VALID,0,
2013-05-15, 02:18:05,VALID,915.898,VALID,0,VALID,89.7657,VALID,0,VALID,21.1461,VALID,10,VALID,0,
2013-05-15, 02:19:05,VALID,915.891,VALID,0,VALID,89.7352,VALID,0,VALID,21.1657,VALID,353,VALID,0,
2013-05-15, 02:20:05,VALID,915.94,VALID,0,VALID,89.537,VALID,0,VALID,21.1852,VALID,5,VALID,0,
2013-05-15, 02:21:05,VALID,915.937,VALID,0,VALID,89.3464,VALID,0,VALID,21.164,VALID,3,VALID,0,
2013-05-15, 02:22:05,VALID,915.945,VALID,0,VALID,89.4074,VALID,0,VALID,21.1461,VALID,353,VALID,0,
2013-05-15, 02:23:05,VALID,915.961,VALID,0,VALID,89.5904,VALID,0,VALID,21.1071,VALID,17,VALID,0,
2013-05-15, 02:24:05,VALID,915.924,VALID,0,VALID,90.1088,VALID,0,VALID,21.0681,VALID,3,VALID,0,
2013-05-15, 02:25:05,VALID,915.942,VALID,0,VALID,90.1088,VALID,0,VALID,21.0681,VALID,4,VALID,0,
2013-05-15, 02:26:05,VALID,915.92,VALID,0,VALID,90.1316,VALID,0,VALID,21.0681,VALID,342,VALID,0,
2013-05-15, 02:27:05,VALID,915.918,VALID,0,VALID,90.1774,VALID,0,VALID,21.0697,VALID,330,VALID,0,
2013-05-15, 02:28:05,VALID,915.888,VALID,0,VALID,89.8953,VALID,0,VALID,21.0275,VALID,336,VALID,0,
2013-05-15, 02:29:05,VALID,915.907,VALID,0,VALID,89.8877,VALID,0,VALID,21.0291,VALID,340,VALID,0,
2013-05-15, 02:30:05,VALID,915.91,VALID,0,VALID,90.2003,VALID,0,VALID,20.9901,VALID,339,VALID,0,
2013-05-15, 02:31:05,VALID,915.921,VALID,0,VALID,90.3832,VALID,0,VALID,20.9706,VALID,341,VALID,0,
2013-05-15, 02:32:05,VALID,915.925,VALID,0,VALID,90.3985,VALID,0,VALID,20.9706,VALID,350,VALID,0,
2013-05-15, 02:33:05,VALID,915.929,VALID,0,VALID,90.4137,VALID,0,VALID,21.0096,VALID,347,VALID,0,
2013-05-15, 02:34:05,VALID,915.906,VALID,0,VALID,90.2003,VALID,0,VALID,21.0307,VALID,341,VALID,0,
2013-05-15, 02:35:05,VALID,915.893,VALID,0,VALID,90.1926,VALID,0,VALID,20.9706,VALID,10,VALID,0,
2013-05-15, 02:36:05,VALID,915.876,VALID,0,VALID,90.0325,VALID,0,VALID,20.9511,VALID,14,VALID,0,
2013-05-15, 02:37:05,VALID,915.875,VALID,0,VALID,90.0783,VALID,0,VALID,20.9706,VALID,18,VALID,0,
2013-05-15, 02:38:05,VALID,915.87,VALID,0,VALID,89.9944,VALID,0,VALID,20.9316,VALID,13,VALID,0,
2013-05-15, 02:39:05,VALID,915.88,VALID,0,VALID,90.0859,VALID,0,VALID,20.9316,VALID,4,VALID,0,
2013-05-15, 02:40:05,VALID,915.85,VALID,0,VALID,90.4366,VALID,0,VALID,20.9706,VALID,327,VALID,0,
2013-05-15, 02:41:05,VALID,915.848,VALID,0,VALID,90.4366,VALID,0,VALID,21.0291,VALID,332,VALID,0,
2013-05-15, 02:42:05,VALID,915.847,VALID,0,VALID,90.0554,VALID,0,VALID,21.0876,VALID,359,VALID,0,
2013-05-15, 02:43:05,VALID,915.811,VALID,0,VALID,89.8801,VALID,0,VALID,21.1461,VALID,348,VALID,0,
2013-05-15, 02:44:05,VALID,915.766,VALID,0,VALID,89.4608,VALID,0,VALID,21.1657,VALID,9,VALID,0,
2013-05-15, 02:45:05,VALID,915.791,VALID,0,VALID,89.1406,VALID,0,VALID,21.1868,VALID,2,VALID,0,
2013-05-15, 02:46:05,VALID,915.788,VALID,0,VALID,89.2321,VALID,0,VALID,21.1657,VALID,356,VALID,0,
2013-05-15, 02:47:05,VALID,915.781,VALID,0,VALID,88.9881,VALID,0,VALID,21.1852,VALID,8,VALID,0,
2013-05-15, 02:48:05,VALID,915.769,VALID,0,VALID,88.7823,VALID,0,VALID,21.1461,VALID,14,VALID,0,
2013-05-15, 02:49:05,VALID,915.785,VALID,0,VALID,88.7366,VALID,0,VALID,21.0876,VALID,11,VALID,0,
2013-05-15, 02:50:05,VALID,915.775,VALID,0,VALID,89.3464,VALID,0,VALID,21.0275,VALID,307,VALID,0,
2013-05-15, 02:51:05,VALID,915.789,VALID,0,VALID,89.7962,VALID,0,VALID,21.0876,VALID,348,VALID,0,
2013-05-15, 02:52:05,VALID,915.754,VALID,0,VALID,89.4684,VALID,0,VALID,21.0681,VALID,349,VALID,0,
2013-05-15, 02:53:05,VALID,915.715,VALID,0,VALID,89.2702,VALID,0,VALID,21.1071,VALID,349,VALID,0,
2013-05-15, 02:54:05,VALID,915.722,VALID,0,VALID,89.3617,VALID,0,VALID,21.0291,VALID,349,VALID,0,
2013-05-15, 02:55:05,VALID,915.668,VALID,0,VALID,89.0949,VALID,0,VALID,20.93,VALID,352,VALID,0,
2013-05-15, 02:56:05,VALID,915.699,VALID,0,VALID,89.7962,VALID,0,VALID,20.9511,VALID,352,VALID,0,
2013-05-15, 02:57:05,VALID,915.683,VALID,0,VALID,90.1316,VALID,0,VALID,20.8535,VALID,14,VALID,0,
2013-05-15, 02:58:05,VALID,915.645,VALID,0,VALID,90.5052,VALID,0,VALID,20.8535,VALID,18,VALID,0,
2013-05-15, 02:59:05,VALID,915.673,VALID,0,VALID,90.3527,VALID,0,VALID,20.8535,VALID,9,VALID,0,
2013-05-15, 03:00:05,VALID,915.662,VALID,0,VALID,90.5357,VALID,0,VALID,20.8145,VALID,4,VALID,0,
2013-05-15, 03:01:05,VALID,915.69,VALID,0,VALID,90.368,VALID,0,VALID,20.9316,VALID,5,VALID,0,
2013-05-15, 03:02:05,VALID,915.657,VALID,0,VALID,89.5523,VALID,0,VALID,20.9511,VALID,359,VALID,0,
2013-05-15, 03:03:05,VALID,915.603,VALID,0,VALID,90.2003,VALID,0,VALID,20.912,VALID,1,VALID,0,
2013-05-15, 03:04:05,VALID,915.61,VALID,0,VALID,90.185,VALID,0,VALID,20.9511,VALID,14,VALID,0,
2013-05-15, 03:05:05,VALID,915.593,VALID,0,VALID,89.4684,VALID,0,VALID,20.9511,VALID,21,VALID,0,
2013-05-15, 03:06:05,VALID,915.572,VALID,0,VALID,89.72,VALID,0,VALID,20.93,VALID,22,VALID,0,
2013-05-15, 03:07:05,VALID,915.555,VALID,0,VALID,89.5294,VALID,0,VALID,20.9722,VALID,7,VALID,0,
2013-05-15, 03:08:05,VALID,915.554,VALID,0,VALID,89.4227,VALID,0,VALID,20.9706,VALID,3,VALID,0,
2013-05-15, 03:09:05,VALID,915.543,VALID,0,VALID,89.3312,VALID,0,VALID,20.9706,VALID,3,VALID,0,
2013-05-15, 03:10:05,VALID,915.533,VALID,0,VALID,89.6819,VALID,0,VALID,20.9316,VALID,3,VALID,0,
2013-05-15, 03:11:05,VALID,915.526,VALID,0,VALID,89.6742,VALID,0,VALID,20.9511,VALID,3,VALID,0,
2013-05-15, 03:12:05,VALID,915.511,VALID,0,VALID,89.6209,VALID,0,VALID,20.873,VALID,3,VALID,0,
2013-05-15, 03:13:05,VALID,915.483,VALID,0,VALID,89.8572,VALID,0,VALID,20.8145,VALID,4,VALID,0,
2013-05-15, 03:14:05,VALID,915.466,VALID,0,VALID,90.5509,VALID,0,VALID,20.7365,VALID,6,VALID,0,
2013-05-15, 03:15:05,VALID,915.489,VALID,0,VALID,90.6043,VALID,0,VALID,20.678,VALID,358,VALID,0,
2013-05-15, 03:16:05,VALID,915.497,VALID,0,VALID,90.9016,VALID,0,VALID,20.678,VALID,358,VALID,0,
2013-05-15, 03:17:05,VALID,915.507,VALID,0,VALID,91.4048,VALID,0,VALID,20.6975,VALID,342,VALID,0,
2013-05-15, 03:18:05,VALID,915.471,VALID,0,VALID,91.3133,VALID,0,VALID,20.7771,VALID,344,VALID,0,
2013-05-15, 03:19:05,VALID,915.474,VALID,0,VALID,90.3451,VALID,0,VALID,20.717,VALID,6,VALID,0,
2013-05-15, 03:20:05,VALID,915.468,VALID,0,VALID,90.6424,VALID,0,VALID,20.699,VALID,6,VALID,0,
2013-05-15, 03:21:05,VALID,915.486,VALID,0,VALID,90.9092,VALID,0,VALID,20.6405,VALID,19,VALID,0,
2013-05-15, 03:22:05,VALID,915.467,VALID,0,VALID,91.2066,VALID,0,VALID,20.5609,VALID,8,VALID,0,
2013-05-15, 03:23:05,VALID,915.484,VALID,0,VALID,91.5115,VALID,0,VALID,20.5999,VALID,336,VALID,0,
2013-05-15, 03:24:05,VALID,915.467,VALID,0,VALID,91.6258,VALID,0,VALID,20.5804,VALID,336,VALID,0,
2013-05-15, 03:25:05,VALID,915.424,VALID,0,VALID,91.7097,VALID,0,VALID,20.6194,VALID,336,VALID,0,
2013-05-15, 03:26:05,VALID,915.438,VALID,0,VALID,91.664,VALID,0,VALID,20.5804,VALID,355,VALID,0,
2013-05-15, 03:27:05,VALID,915.414,VALID,0,VALID,91.7097,VALID,0,VALID,20.5804,VALID,349,VALID,0,
2013-05-15, 03:28:05,VALID,915.418,VALID,0,VALID,91.7478,VALID,0,VALID,20.6194,VALID,337,VALID,0,
2013-05-15, 03:29:05,VALID,915.403,VALID,0,VALID,91.4734,VALID,0,VALID,20.678,VALID,6,VALID,0,
2013-05-15, 03:30:05,VALID,915.41,VALID,0,VALID,90.894,VALID,0,VALID,20.6975,VALID,6,VALID,0,
2013-05-15, 03:31:05,VALID,915.396,VALID,0,VALID,90.9473,VALID,0,VALID,20.6374,VALID,351,VALID,0,
2013-05-15, 03:32:05,VALID,915.396,VALID,0,VALID,91.1151,VALID,0,VALID,20.717,VALID,347,VALID,0,
2013-05-15, 03:33:05,VALID,915.396,VALID,0,VALID,91.016,VALID,0,VALID,20.6585,VALID,4,VALID,0,
2013-05-15, 03:34:05,VALID,915.393,VALID,0,VALID,91.2523,VALID,0,VALID,20.678,VALID,334,VALID,0,
2013-05-15, 03:35:05,VALID,915.434,VALID,0,VALID,91.3057,VALID,0,VALID,20.717,VALID,4,VALID,0,
2013-05-15, 03:36:05,VALID,915.43,VALID,0,VALID,91.0083,VALID,0,VALID,20.699,VALID,15,VALID,0,
2013-05-15, 03:37:05,VALID,915.454,VALID,0,VALID,90.8559,VALID,0,VALID,20.6194,VALID,8,VALID,0,
2013-05-15, 03:38:05,VALID,915.51,VALID,0,VALID,91.1303,VALID,0,VALID,20.639,VALID,347,VALID,0,
2013-05-15, 03:39:05,VALID,915.481,VALID,0,VALID,91.0846,VALID,0,VALID,20.639,VALID,338,VALID,0,
2013-05-15, 03:40:05,VALID,915.458,VALID,0,VALID,91.2523,VALID,0,VALID,20.6585,VALID,347,VALID,0,
2013-05-15, 03:41:05,VALID,915.463,VALID,0,VALID,90.7873,VALID,0,VALID,20.717,VALID,8,VALID,0,
2013-05-15, 03:42:05,VALID,915.469,VALID,0,VALID,91.0083,VALID,0,VALID,20.639,VALID,10,VALID,0,
2013-05-15, 03:43:05,VALID,915.467,VALID,0,VALID,91.2828,VALID,0,VALID,20.699,VALID,354,VALID,0,
2013-05-15, 03:44:05,VALID,915.458,VALID,0,VALID,91.1532,VALID,0,VALID,20.678,VALID,352,VALID,0,
2013-05-15, 03:45:05,VALID,915.437,VALID,0,VALID,90.711,VALID,0,VALID,20.678,VALID,352,VALID,0,
2013-05-15, 03:46:05,VALID,915.422,VALID,0,VALID,90.4671,VALID,0,VALID,20.5804,VALID,13,VALID,0,
2013-05-15, 03:47:05,VALID,915.426,VALID,0,VALID,91.0693,VALID,0,VALID,20.5999,VALID,21,VALID,0,
2013-05-15, 03:48:05,VALID,915.402,VALID,0,VALID,91.0541,VALID,0,VALID,20.6015,VALID,13,VALID,0,
2013-05-15, 03:49:05,VALID,915.398,VALID,0,VALID,90.7491,VALID,0,VALID,20.5999,VALID,357,VALID,0,
2013-05-15, 03:50:05,VALID,915.333,VALID,0,VALID,90.5509,VALID,0,VALID,20.6194,VALID,360,VALID,0,
2013-05-15, 03:51:05,VALID,915.395,VALID,0,VALID,89.9029,VALID,0,VALID,20.639,VALID,14,VALID,0,
2013-05-15, 03:52:05,VALID,915.366,VALID,0,VALID,89.9182,VALID,0,VALID,20.6795,VALID,15,VALID,0,
2013-05-15, 03:53:05,VALID,915.368,VALID,0,VALID,89.8725,VALID,0,VALID,20.678,VALID,13,VALID,0,
2013-05-15, 03:54:05,VALID,915.38,VALID,0,VALID,89.7962,VALID,0,VALID,20.6585,VALID,358,VALID,0,
2013-05-15, 03:55:05,VALID,915.384,VALID,0,VALID,88.8967,VALID,0,VALID,20.6975,VALID,3,VALID,0,
2013-05-15, 03:56:05,VALID,915.377,VALID,0,VALID,88.4774,VALID,0,VALID,20.6585,VALID,4,VALID,0,
2013-05-15, 03:57:05,VALID,915.388,VALID,0,VALID,89.0644,VALID,0,VALID,20.5609,VALID,5,VALID,0,
2013-05-15, 03:58:05,VALID,915.379,VALID,0,VALID,89.0644,VALID,0,VALID,20.5219,VALID,10,VALID,0,
2013-05-15, 03:59:05,VALID,915.384,VALID,0,VALID,89.9868,VALID,0,VALID,20.465,VALID,348,VALID,0,
2013-05-15, 04:00:05,VALID,915.379,VALID,0,VALID,90.6272,VALID,0,VALID,20.4634,VALID,7,VALID,0,